Regional Weather Roundup
Issued by NWS

Home | Current Version | Previous Version | Text Only | Print | Product List | Glossary On
Versions: 1 2 3 4 5 6 7 8 9 10 11 12 13 14 15 16 17 18 19 20 21 22 23 24 25 26 27 28 29 30 31 32 33 34 35 36 37 38 39 40 41 42 43 44 45 46 47 48 49 50
000
ASUS44 KOUN 032310
RWROK

WEATHER ROUNDUP FOR OKLAHOMA
NATIONAL WEATHER SERVICE NORMAN OK
500 PM CST TUE MAR 03 2015

NOTE: "FAIR" INDICATES FEW OR NO CLOUDS BELOW 12,000 FEET WITH NO
      SIGNIFICANT WEATHER AND/OR OBSTRUCTIONS TO VISIBILITY.

OKZ001>007-009>012-014-015-017-040000-
NORTHWEST OKLAHOMA AND THE PANHANDLE

CITY           SKY/WX    TMP DP  RH WIND       PRES   REMARKS
GAGE           CLOUDY    46  34  62 N14       29.84R
GUYMON         PTSUNNY   43  32  65 NE16G24   29.81
ENID/WOODRING  CLOUDY    50  43  76 N8        29.83S
$$

OKZ016-021>023-033>039-044-045-040000-
SOUTHWEST OKLAHOMA

CITY           SKY/WX    TMP DP  RH WIND       PRES   REMARKS
LAWTON/REGL    PTSUNNY   57  47  69 W3        29.82R
LAWTON/FT SILL PTSUNNY   58  48  70 NW3       29.81R
FREDERICK        N/A     58  46  64 CALM      29.77R
CLINTON        CLOUDY    54  40  59 N10       29.82F
HOBART         CLOUDY    54  45  71 E5        29.82R
ALTUS AFB      PTSUNNY   58  47  66 E6        29.79R
$$

OKZ018>020-024>031-040000-
CENTRAL OKLAHOMA

CITY           SKY/WX    TMP DP  RH WIND       PRES   REMARKS
OKLAHOMA CITY  CLOUDY    55  42  61 NW5       29.82S
OKC/WILEY POST CLOUDY    55  43  63 NW5       29.83F
STILLWATER     CLOUDY    54  40  59 N12       29.84R
GUTHRIE        CLOUDY    57  41  55 VRB5      29.83R
$$

OKZ008-013-054>072-040000-
NORTHEAST OKLAHOMA

CITY           SKY/WX    TMP DP  RH WIND       PRES   REMARKS
TULSA          CLOUDY    57  46  66 NW7       29.82R
TULSA/JONES    PTSUNNY   59  46  62 NW6       29.82R
PONCA CITY     LGT RAIN  49  42  77 N3        29.84S
BARTLESVILLE   CLOUDY    50  40  68 VRB3      29.86R
MUSKOGEE       CLOUDY    53  46  77 S7        29.83F
$$

OKZ032-040>043-046>053-073>077-040000-
SOUTH CENTRAL/SOUTHEAST OKLAHOMA

CITY           SKY/WX    TMP DP  RH WIND       PRES   REMARKS
ARDMORE/DWNTWN CLOUDY    50  46  87 SE3       29.82S
MCALESTER      CLOUDY    49  47  93 S5        29.84S
$$




USA.gov is the U.S. government's official web portal to all federal, state and local government web resources and services.